Terminal Aerodrome Forecast
Issued by NWS

Home | Current Version | Previous Version | Text Only | Print | Product List | Glossary On
Versions: 1 2 3 4 5 6 7 8 9 10 11 12 13
000
FTUS42 KFFC 231627 AAA
TAFRYY
TAF AMD
KRYY 231627Z 2316/2412 10012G20KT 3SM -SHRA BR OVC005
      TEMPO 2317/2318 2SM +TSRA BR OVC006CB
     FM232300 15009G18KT 6SM BR VCSH OVC009
     FM240500 19008KT 4SM BR OVC007=

USA.gov is the U.S. government's official web portal to all federal, state and local government web resources and services.